User: anonymous   Login
Location: Unspecified
(0.0000°N, 0.0000°E)
Time: 02:00:28
(UTC+00:00)
Language:

DNEPR OBJECT X - Orbit

View from above orbital plane
View from above orbital plane
View from above satellite
View from above satellite

Ground track
Ground track

The orbit data is extracted from the following two-line orbital elements,

1 39437U 13066X   17324.91935166 +.00025656 +00000-0 +71353-3 0  9995
2 39437 097.7162 072.7824 0008243 271.9552 088.0747 15.36799510219077
Epoch (UTC): 20 November 2017 22:03:51
Eccentricity: 0.0008243
inclination: 97.7162°
perigee height: 450 km
apogee height: 461 km
right ascension of ascending node: 72.7824°
argument of perigee: 271.9552°
revolutions per day: 15.36799510
mean anomaly at epoch: 88.0747°
orbit number at epoch: 21907

The dashed part of the orbit path shows where the satellite is in the earth's shadow,  

DLR